Location: Erlach
(47.0430°N, 7.0996°E)
Time: 00:26:35
(UTC+00:00)

Daily predictions for brighter satellites

Satellite Brightness Start Highest point End
(mag) Time Altitude Azimuth Time Altitude Azimuth Time Altitude Azimuth
STARLINK-1268 4.4 00:04:29 26° E 00:04:29 26° E 00:06:10 10° ENE
STARLINK-1303 4.0 00:05:53 41° ESE 00:05:53 41° ESE 00:09:01 10° ENE
STARLINK-66 3.3 00:07:08 54° E 00:07:08 54° E 00:09:48 10° ENE
Cosmos 1570 Rocket 4.1 00:04:53 39° S 00:06:46 67° ESE 00:12:01 10° NNE
Cosmos 1400 Rocket 4.3 00:03:17 10° N 00:07:02 32° ENE 00:09:10 20° ESE
Cosmos 1763 Rocket 3.4 00:05:57 38° SW 00:07:54 77° WNW 00:13:00 10° NNE
Cosmos 1709 Rocket 4.0 00:05:05 33° S 00:07:56 73° E 00:14:07 10° NNE
STARLINK-1316 4.1 00:09:24 31° E 00:09:24 31° E 00:11:23 10° ENE
Cosmos 2227 Rocket 2.8 00:03:22 10° NW 00:08:37 39° WSW 00:10:10 33° SW
STARLINK-1312 3.8 00:09:13 45° SE 00:09:13 45° SE 00:12:32 10° ENE
STARLINK-1257 4.1 00:10:14 33° E 00:10:14 33° E 00:12:17 10° ENE
STARLINK-1256 4.0 00:11:11 33° E 00:11:11 33° E 00:13:14 10° ENE
STARLINK-1213 4.0 00:12:02 34° E 00:12:02 34° E 00:14:07 10° ENE
STARLINK-1263 3.9 00:12:53 35° E 00:12:53 35° E 00:15:01 10° ENE
STARLINK-1259 3.9 00:13:47 36° E 00:13:47 36° E 00:15:57 10° ENE
Cosmos 2084 Rocket 3.5 00:08:26 10° NW 00:12:56 90° SSE 00:14:58 32° SE
STARLINK-1265 3.8 00:14:09 38° E 00:14:09 38° E 00:16:24 10° ENE
STARLINK-1285 3.8 00:14:38 37° E 00:14:38 37° E 00:16:50 10° ENE
STARLINK-1296 3.7 00:16:22 40° E 00:16:22 40° E 00:18:39 10° ENE
SL-16 R/B 3.6 00:10:40 10° SE 00:16:19 40° ENE 00:22:01 10° N
STARLINK-1260 3.7 00:17:14 41° E 00:17:14 41° E 00:19:34 10° ENE
Cosmos 1758 Rocket 3.5 00:15:28 46° S 00:16:44 79° E 00:21:11 10° NNE
STARLINK-1318 3.6 00:18:06 42° E 00:18:06 42° E 00:20:28 10° ENE
STARLINK-75 2.9 00:18:02 70° ESE 00:18:02 70° ESE 00:21:03 10° ENE
STARLINK-1275 3.6 00:18:59 44° E 00:18:59 44° E 00:21:23 10° ENE
STARLINK-1309 3.5 00:19:50 45° E 00:19:50 45° E 00:22:16 10° ENE
STARLINK-1282 3.5 00:20:42 46° E 00:20:42 46° E 00:23:10 10° ENE
STARLINK-1283 3.6 00:20:03 53° S 00:20:40 62° SE 00:24:45 10° ENE
STARLINK-1313 3.2 00:21:38 56° E 00:21:38 56° E 00:24:18 10° ENE
STARLINK-80 3.4 00:21:07 58° SSE 00:21:21 60° SE 00:25:06 10° ENE
IRAS Rocket 4.4 00:18:06 25° SSE 00:21:26 72° ENE 00:26:57 10° NNW
STARLINK-1279 3.1 00:22:32 57° E 00:22:32 57° E 00:25:13 10° ENE
STARLINK-1298 3.3 00:23:16 50° E 00:23:16 50° E 00:25:50 10° ENE
CZ-4 R/B 4.0 00:18:24 10° N 00:23:06 64° WNW 00:24:50 37° SW
STARLINK-1293 3.2 00:24:09 53° E 00:24:09 53° E 00:26:47 10° ENE
STARLINK-1255 3.2 00:25:54 56° ESE 00:25:54 56° ESE 00:28:36 10° ENE
SL-16 R/B 3.9 00:22:44 16° SE 00:25:30 22° E 00:29:45 10° NE
Cosmos 2208 Rocket 4.0 00:23:37 37° SSW 00:25:45 80° ESE 00:31:09 10° NNE
STARLINK-22 2.9 00:26:16 68° ESE 00:26:16 68° ESE 00:29:16 10° ENE
STARLINK-1297 3.2 00:26:32 59° SSE 00:26:38 60° SE 00:30:12 10° ENE
STARLINK 1040 3.9 00:26:21 31° NW 00:26:45 33° NNW 00:29:08 10° NE
STARLINK-1444 4.4 00:25:43 10° NW 00:26:52 22° NNW 00:26:52 22° NNW
STARLINK-1311 3.0 00:28:27 62° E 00:28:27 62° E 00:31:00 10° ENE
Cosmos 2285 Rocket 4.0 00:22:21 10° NNW 00:28:40 68° WSW 00:31:55 30° S
CZ-2D R/B 3.3 00:27:30 10° NNE 00:32:08 31° E 00:35:02 19° SE
MOZ.5/SAFIR/RUBIN 5/SL-8 4.5 00:29:15 20° SE 00:32:13 50° ENE 00:36:43 10° N
USA 81 4.1 00:30:17 36° SSW 00:32:28 73° W 00:37:47 10° N
Cosmos-2242 2.9 00:28:49 10° NNW 00:33:05 79° W 00:34:23 44° S
Meteor 2-10 Rocket 3.8 00:28:34 10° NNW 00:33:32 51° W 00:35:15 35° SSW
USA 215 3.2 00:28:07 13° SE 00:34:03 61° SW 00:40:33 10° WNW
Cosmos 1953 Rocket 3.7 00:33:32 38° SSE 00:35:06 68° E 00:39:30 10° NNE
Cosmos 2221 4.4 00:32:02 10° NNE 00:35:45 26° ENE 00:39:27 10° SE
STARLINK-42 2.9 00:36:26 62° W 00:36:49 75° NNW 00:39:57 10° ENE
BREEZE-M R/B 3.4 00:30:46 10° W 00:36:57 64° N 00:40:12 10° ENE
STARLINK-1029 3.5 00:39:04 43° ESE 00:39:04 43° ESE 00:41:43 10° ENE
STARLINK-34 3.0 00:40:02 59° ESE 00:40:02 59° ESE 00:42:49 10° ENE
STARLINK-60 3.4 00:37:07 10° WNW 00:40:17 60° NNE 00:43:26 10° ESE
STARLINK-41 2.9 00:40:11 61° W 00:40:33 73° NNW 00:43:37 10° ENE
GP-B 3.6 00:36:30 10° N 00:40:52 54° E 00:42:58 28° SSE
CZ-4C R/B 4.3 00:38:35 20° SE 00:41:23 51° ENE 00:45:42 10° N
STARLINK-1272 3.0 00:42:02 56° SW 00:42:41 81° SSE 00:46:15 10° ENE
Cosmos 540 Rocket 3.5 00:41:07 34° SW 00:43:24 75° WNW 00:48:33 10° NNE
STARLINK-62 2.8 00:43:45 66° SE 00:43:45 66° SE 00:46:40 10° ENE
STARLINK-1307 3.2 00:46:48 45° SW 00:47:50 85° SSE 00:51:35 10° ENE
Cosmos 2360 Rocket 4.4 00:45:04 10° SE 00:47:58 14° E 00:50:54 10° ENE
Helios 1B rocket 3.5 00:45:03 10° N 00:48:50 35° WNW 00:50:23 26° WSW
STARLINK-1290 3.2 00:50:11 42° WSW 00:51:21 89° SSE 00:55:05 10° ENE
Cosmos 1980 Rocket 2.3 00:51:50 29° SW 00:54:48 74° WNW 01:00:29 10° NNE
Cosmos 2074 Rocket 4.2 00:51:22 24° S 00:55:19 68° E 01:01:33 10° NNE
Meteor 1-29 3.9 00:54:21 10° N 00:57:26 34° WNW 00:58:11 30° W
STARLINK-1306 4.5 00:57:24 31° SSE 00:58:12 34° SE 01:02:01 10° ENE
STARLINK-1317 3.5 00:56:33 31° WSW 00:58:20 80° NNW 01:02:16 10° ENE
Cosmos 1455 3.5 00:56:34 10° NW 00:59:37 24° W 01:00:05 23° WSW
Cosmos 1328 4.4 00:59:35 33° SW 01:00:51 45° WNW 01:04:43 10° N
STARLINK-55 3.8 01:00:33 22° W 01:02:17 47° NNW 01:05:24 10° NE
STARLINK-1274 3.3 01:00:55 33° WSW 01:02:22 75° NNW 01:05:55 10° ENE
STARLINK-1262 4.4 01:01:53 31° SSE 01:02:45 35° SE 01:06:32 10° ENE
STARLINK-1291 3.4 01:04:15 28° WSW 01:06:04 73° NNW 01:09:48 10° ENE
Meteor 1-11 4.2 01:03:54 28° SSW 01:06:58 81° WNW 01:12:35 10° N
Cosmos 1703 4.2 01:05:53 27° WSW 01:07:10 35° WNW 01:10:48 10° N
STARLINK-1300 4.3 01:06:40 32° S 01:07:42 37° SE 01:11:32 10° ENE
Lacrosse 4 Rocket 3.4 01:05:30 10° WNW 01:07:20 14° W 01:07:20 14° W
STARLINK-1264 3.5 01:07:26 26° WSW 01:09:23 70° NNW 01:13:08 10° ENE
ADEOS II 3.7 01:05:41 10° NE 01:10:10 28° E 01:14:37 10° SSE
Cosmos 1825 Rocket 4.5 01:08:39 25° WSW 01:10:22 36° WNW 01:14:25 10° N
Cosmos 2263 Rocket 2.1 01:05:19 10° NNW 01:10:57 84° WSW 01:15:58 13° SSE
Timation 1 Rocket 4.4 01:06:36 10° NW 01:12:27 56° WSW 01:16:19 21° S
STARLINK-1295 4.2 01:11:26 32° S 01:12:38 40° SE 01:16:32 10° ENE
STARLINK-1267 3.6 01:10:40 24° WSW 01:12:46 67° NNW 01:16:29 10° ENE
NOSS 2-1 (C) 3.5 01:12:04 35° SSE 01:13:01 45° ESE 01:16:26 10° NE
STARLINK-29 3.5 01:09:54 10° WNW 01:13:04 58° NNE 01:16:13 10° ESE
STARLINK-28 4.2 01:11:34 15° W 01:13:51 40° NNW 01:16:55 10° NE
UNK 3.6 01:11:41 23° SSE 01:14:35 87° WSW 01:19:12 10° NNW
SL-4 R/B 2.2 01:09:49 10° WNW 01:14:41 78° SSW 01:19:22 10° ESE
STARLINK-64 3.2 01:14:12 40° SSW 01:15:17 65° SSE 01:18:52 10° ENE
AQUA 4.4 01:10:40 10° NNE 01:15:19 50° E 01:18:24 20° SSE
USA 229 DEB 3.8 01:09:18 10° NW 01:16:36 84° SW 01:24:14 10° SE
USA 229 3.8 01:09:25 10° NW 01:16:42 84° SW 01:24:21 10° SE
NOSS 3-1 (C) 4.0 01:09:57 10° NW 01:17:28 78° SW 01:26:08 10° SSE
STARLINK-1287 4.1 01:16:12 32° S 01:17:35 44° SE 01:21:32 10° ENE
NOSS 2-1 (D) 3.3 01:16:50 36° S 01:17:53 52° SE 01:21:23 10° NE
NPP 3.8 01:13:55 10° NNE 01:19:19 69° ESE 01:22:54 22° S
STARLINK-1207 3.7 01:17:09 20° W 01:19:32 62° NNW 01:23:16 10° ENE
Cosmos 2184 Rocket 3.9 01:16:27 23° S 01:20:26 84° W 01:26:39 10° N
CZ-4C R/B 3.8 01:17:29 10° W 01:22:16 32° NNW 01:27:55 10° NNE
STARLINK-1266 3.8 01:20:25 19° W 01:22:56 59° NNW 01:26:40 10° ENE
BREEZE-M DEB (TANK) 1.3 01:23:14 69° SW 01:23:25 84° SSE 01:26:03 10° ENE
STARLINK-33 4.2 01:21:40 14° W 01:24:05 37° NNW 01:27:01 10° NE
Cosmos 1892 3.8 01:21:53 17° SSE 01:24:21 37° E 01:27:53 10° NNE
NOSS 3-1 (A) 4.1 01:18:08 10° NW 01:25:39 85° NE 01:34:19 10° SE
STARLINK-1299 3.8 01:24:06 30° SSW 01:26:01 59° SE 01:30:13 10° ENE
STARLINK-1284 3.9 01:23:41 17° W 01:26:21 57° NNW 01:30:04 10° ENE
STARLINK-1302 3.9 01:25:46 30° SSW 01:27:30 51° SE 01:31:32 10° ENE
STARLINK-26 4.4 01:24:28 11° W 01:27:33 39° NNW 01:30:49 10° NE
BREEZE-M DEB (TANK) 2.0 01:25:37 10° WNW 01:28:02 47° N 01:30:29 10° E
STARLINK-1258 3.9 01:26:59 16° W 01:29:48 55° NNW 01:33:30 10° ENE
Cosmos 1869 3.2 01:26:32 10° N 01:30:25 83° E 01:33:00 20° SSE
Cosmos 2150 Rocket 4.5 01:26:24 10° NW 01:31:13 41° WSW 01:33:54 23° SSW
STARLINK-1273 3.8 01:30:32 28° SSW 01:32:27 56° SE 01:36:31 10° ENE
STARLINK-1292 4.0 01:30:17 15° W 01:33:14 53° NNW 01:36:56 10° ENE
Cosmos 2322 Rocket 2.5 01:29:42 21° S 01:33:29 61° ESE 01:39:02 10° NNE
In-Cosmos 22 Rocket 4.5 01:31:02 16° S 01:35:26 63° E 01:40:51 10° NNE
STARLINK-1355 4.5 01:33:07 10° NW 01:36:05 37° NNE 01:39:01 10° E
STARLINK-1321 4.5 01:33:28 10° NW 01:36:25 37° NNE 01:39:22 10° E
STARLINK-1358 4.5 01:33:51 10° NW 01:36:48 37° NNE 01:39:45 10° E
STARLINK-1332 4.5 01:34:08 10° NW 01:37:05 37° NNE 01:40:02 10° E
STARLINK-1288 3.7 01:35:19 27° SW 01:37:24 60° SE 01:41:31 10° ENE
STARLINK-1348 4.5 01:34:29 10° NW 01:37:26 38° NNE 01:40:23 10° E
STARLINK-61 3.9 01:35:51 27° SSW 01:37:33 45° SE 01:41:19 10° ENE
STARLINK-1330 4.5 01:34:48 10° NW 01:37:46 38° NNE 01:40:43 10° E
STARLINK-1363 4.5 01:35:08 10° NW 01:38:06 38° NNE 01:41:03 10° E
STARLINK-1337 4.4 01:35:31 10° NW 01:38:28 38° NNE 01:41:26 10° E
STARLINK-1342 4.4 01:35:50 10° NW 01:38:47 38° NNE 01:41:44 10° E
STARLINK-1268 4.1 01:36:29 13° W 01:38:58 39° NNW 01:41:54 10° NE
STARLINK-1364 4.4 01:36:10 10° NW 01:39:08 38° NNE 01:42:05 10° E
STARLINK-1376 4.4 01:36:30 10° NW 01:39:28 38° NNE 01:42:25 10° E
STARLINK-1360 4.4 01:36:50 10° NW 01:39:48 39° NNE 01:42:46 10° E
STARLINK-1289 4.2 01:36:51 12° W 01:40:07 49° NNW 01:43:48 10° ENE
STARLINK-1361 4.4 01:37:12 10° NW 01:40:09 39° NNE 01:43:07 10° E
STARLINK-1367 4.4 01:37:27 10° NW 01:40:27 39° NNE 01:43:27 10° E
STARLINK-1366 4.4 01:37:50 10° NW 01:40:48 39° NNE 01:43:46 10° E
Resurs 1-4 Rocket 2.2 01:35:58 10° N 01:41:15 68° WNW 01:44:54 20° SSW
Cosmos 1697 Rocket 4.5 01:36:57 10° W 01:41:24 23° NW 01:45:52 10° N
STARLINK-1301 4.3 01:38:34 11° W 01:42:07 48° NNW 01:45:52 10° ENE
STARLINK-1308 3.7 01:40:08 25° SW 01:42:26 66° SE 01:46:33 10° ENE
Cosmos 1076 Rocket 3.8 01:39:51 17° S 01:43:04 65° E 01:47:26 10° NNE
Cosmos 1400 Rocket 4.2 01:40:01 10° NW 01:43:21 24° W 01:44:45 20° WSW
STARLINK-1303 4.2 01:40:12 11° W 01:43:37 48° NNW 01:47:17 10° ENE
STARLINK-1316 4.2 01:41:30 11° W 01:44:14 37° NNW 01:47:12 10° NE
Cosmos 1125 Rocket 3.7 01:39:54 10° NNW 01:44:55 50° WSW 01:48:54 16° S
STARLINK-1257 4.2 01:42:21 11° W 01:45:08 37° NNW 01:48:06 10° NE
STARLINK-1256 4.2 01:43:18 11° W 01:46:06 37° NNW 01:49:03 10° NE
STARLINK-58 3.9 01:44:00 14° W 01:46:30 45° NNW 01:49:35 10° NE
STARLINK-1213 4.3 01:44:09 11° W 01:46:59 36° NNW 01:49:56 10° NE
STARLINK-1312 4.3 01:43:32 10° W 01:47:08 46° NNW 01:50:47 10° ENE
H-2A R/B 4.3 01:43:41 10° ESE 01:47:22 26° ENE 01:51:07 10° N
STARLINK-1263 4.3 01:45:01 10° W 01:47:54 36° NNW 01:50:50 10° NE
STARLINK-52 2.8 01:45:12 10° WNW 01:48:25 88° SW 01:51:38 10° ESE
STARLINK-1259 4.3 01:45:54 10° W 01:48:49 36° NNW 01:51:46 10° NE
STARLINK-1265 4.3 01:46:17 10° W 01:49:14 36° NNW 01:52:12 10° NE
STARLINK-1285 4.3 01:46:47 10° W 01:49:42 36° NNW 01:52:38 10° NE
STARLINK-1296 4.3 01:48:37 10° W 01:51:31 35° NNW 01:54:27 10° NE
STARLINK-1304 3.6 01:49:41 21° SW 01:52:21 75° SSE 01:56:30 10° ENE
STARLINK-1260 4.4 01:49:31 10° W 01:52:26 35° NNW 01:55:21 10° NE
Cosmos 1408 3.4 01:49:31 13° SSE 01:52:33 48° E 01:56:06 10° NNE
STARLINK-1318 4.4 01:50:26 10° W 01:53:20 35° NNW 01:56:16 10° NE
STARLINK-1275 4.4 01:51:21 10° W 01:54:15 34° NNW 01:57:10 10° NE
Cosmos 2154 Rocket 4.0 01:49:51 17° SSW 01:54:46 72° W 02:01:01 10° N
STARLINK-1309 4.4 01:52:14 10° W 01:55:08 34° NNW 01:58:02 10° NE
STARLINK-1282 4.4 01:53:09 10° W 01:56:02 34° NNW 01:58:56 10° NE
GEOS 3 Rocket 3.6 01:51:42 10° SSE 01:56:51 69° SW 02:02:09 10° NW
STARLINK-48 3.8 01:53:48 14° WSW 01:57:04 62° NNW 02:00:57 10° ENE
STARLINK-1278 3.6 01:55:21 18° WSW 01:58:31 90° W 02:02:48 10° ENE
STARLINK-1298 4.5 01:55:50 10° W 01:58:43 33° NNW 02:01:36 10° NE
Cosmos 1825 3.4 01:55:40 10° SSE 01:59:09 38° E 02:02:40 10° NNE
STARLINK-1293 4.5 01:56:46 10° W 01:59:39 33° NNW 02:02:33 10° NE
SL-16 R/B 3.1 01:55:29 16° SSW 01:59:55 40° W 02:05:43 10° NNW
STARLINK-1280 3.7 01:57:08 17° WSW 02:00:22 88° NW 02:04:39 10° ENE
Iridium 2 4.4 01:57:32 10° NNW 02:01:02 37° W 02:03:12 19° SW
STARLINK-69 4.4 01:59:20 19° S 02:01:15 30° SE 02:04:27 10° ENE
STARLINK-1255 4.5 01:58:36 10° W 02:01:28 33° NNW 02:04:22 10° NE
SL-08 R/B 3.6 01:57:07 10° SSE 02:01:42 68° ENE 02:06:18 10° N
STARLINK-21 4.5 02:00:55 18° S 02:02:53 30° SE 02:06:06 10° ENE
STARLINK-45 4.3 02:02:35 18° SSW 02:04:39 33° SE 02:07:56 10° ENE
IRS-P3 4.3 01:59:23 10° NNE 02:04:44 71° ESE 02:09:52 11° S
Cosmos 1844 Rocket 3.2 01:59:54 10° NNW 02:05:29 62° ENE 02:10:59 10° SE
NOSS 2-1 (E) 3.4 02:04:58 18° WSW 02:07:20 55° NW 02:11:02 10° NNE
STARLINK-76 4.3 02:05:36 17° SSW 02:07:45 32° SE 02:11:02 10° ENE
STARLINK-70 4.3 02:05:59 18° SSW 02:08:12 35° SE 02:11:34 10° ENE
STARLINK-1286 3.6 02:05:37 15° WSW 02:09:00 85° NNW 02:13:12 10° ENE
SL-16 R/B 2.4 02:04:36 16° SW 02:09:06 64° WNW 02:14:46 10° NNE
STARLINK-23 4.3 02:07:11 17° SSW 02:09:23 33° SE 02:12:41 10° ENE
STARLINK-1339 4.4 02:05:33 10° WNW 02:09:27 52° NNE 02:13:19 10° E
STARLINK-32 4.2 02:08:37 17° SSW 02:10:50 34° SE 02:14:06 10° ENE
IRIDIUM 104 4.4 02:07:38 14° SSW 02:12:11 66° W 02:17:24 10° N
STARLINK-1281 3.6 02:08:48 15° WSW 02:12:15 84° NNW 02:16:25 10° ENE
CZ-2D R/B 2.9 02:07:26 10° N 02:12:16 39° WNW 02:16:21 14° SW
STARLINK-40 4.2 02:10:18 17° SSW 02:12:37 35° SE 02:15:57 10° ENE
Cosmos 2221 3.5 02:09:26 10° NNW 02:13:19 32° W 02:16:17 15° SW
STARLINK-1377 4.3 02:10:05 10° WNW 02:14:02 55° NNE 02:17:58 10° E
STARLINK-44 4.2 02:11:49 17° SSW 02:14:11 36° SE 02:17:34 10° ENE
STARLINK-1029 4.2 02:11:40 10° W 02:14:40 38° NNW 02:17:40 10° NE
STARLINK-34 4.4 02:12:44 10° W 02:15:34 32° NNW 02:18:24 10° NE
STARLINK-37 4.0 02:13:33 17° SSW 02:15:59 40° SE 02:19:25 10° ENE
Cosmos 773 Rocket 4.4 02:11:02 11° S 02:16:05 62° ESE 02:21:19 10° NNE
STARLINK-60 4.1 02:13:34 10° W 02:16:09 23° SW 02:18:44 10° SSE
STARLINK-1310 3.7 02:13:35 13° WSW 02:17:14 79° NNW 02:21:24 10° ENE
STARLINK-36 4.1 02:14:56 16° SSW 02:17:25 39° SE 02:20:50 10° ENE
FALCON 9 DEB 3.0 02:14:17 10° WNW 02:17:45 81° SSW 02:21:12 10° SE
STARLINK-1353 4.3 02:14:25 10° WNW 02:18:23 57° NNE 02:22:20 10° ESE
Nadezhda 3 Rocket 4.5 02:12:43 10° NNW 02:18:41 45° W 02:24:39 10° SSW
Cosmos 1315 Rocket 4.0 02:15:49 10° NW 02:19:03 25° W 02:21:25 15° SW
STARLINK-62 4.5 02:16:38 10° W 02:19:25 31° NNW 02:22:12 10° NE
STARLINK-63 3.9 02:18:10 16° SSW 02:20:46 43° SE 02:24:13 10° ENE
CBERS-1 4.2 02:16:57 10° N 02:22:00 60° WNW 02:26:39 12° SSW
STARLINK-35 3.9 02:19:32 15° SSW 02:22:08 42° SE 02:25:31 10° ENE
STARLINK-1319 3.7 02:18:21 12° WSW 02:22:12 75° NNW 02:26:22 10° ENE
STARLINK-1375 4.2 02:18:48 10° WNW 02:22:47 60° NNE 02:26:45 10° ESE
STARLINK-51 3.9 02:21:14 15° SSW 02:23:56 44° SE 02:27:23 10° ENE
Cosmos 2366 rocket 4.3 02:19:05 10° S 02:25:16 69° E 02:31:33 10° NNE
STARLINK-30 3.8 02:22:49 15° SSW 02:25:35 45° SE 02:29:05 10° ENE
STARLINK-72 3.8 02:24:13 15° SSW 02:26:58 46° SE 02:30:25 10° ENE
STARLINK-1350 4.1 02:23:08 10° WNW 02:27:08 63° NNE 02:31:07 10° ESE
STARLINK-1277 3.8 02:23:08 10° WSW 02:27:11 71° NNW 02:31:21 10° ENE
Shenzhou-11 Module 2.4 02:26:47 17° SW 02:28:09 28° S 02:30:19 10° ESE
STARLINK-1021 4.4 02:26:14 13° SSW 02:29:38 39° SE 02:33:31 10° ENE
STARLINK-59 3.6 02:27:25 14° SW 02:30:19 51° SE 02:33:48 10° ENE
Cosmos 2058 3.8 02:27:00 13° SW 02:30:22 37° WNW 02:34:18 10° N
Cosmos 2360 Rocket 2.2 02:25:44 11° SSW 02:31:07 90° SE 02:36:48 10° NNE
STARLINK-1352 4.0 02:27:18 10° WNW 02:31:19 66° NNE 02:35:17 10° ESE
STARLINK-1010 4.4 02:28:17 13° SSW 02:31:52 43° SE 02:35:54 10° ENE
STARLINK-56 3.7 02:29:04 13° SW 02:32:04 51° SE 02:35:37 10° ENE
STARLINK-1276 3.9 02:28:05 10° WSW 02:32:12 67° NNW 02:36:21 10° ENE
STARLINK-73 3.6 02:30:38 13° SW 02:33:42 52° SE 02:37:14 10° ENE
Cosmos 1328 Rocket 4.3 02:29:50 10° N 02:34:11 56° ENE 02:38:28 10° SSE
STARLINK-1019 4.3 02:30:59 12° SSW 02:34:33 43° SE 02:38:29 10° ENE
STARLINK-38 3.6 02:32:12 13° SW 02:35:20 54° SE 02:38:53 10° ENE
STARLINK-1368 3.9 02:32:00 10° WNW 02:36:01 70° NNE 02:40:02 10° ESE
STARLINK-65 3.6 02:33:46 12° SW 02:36:57 56° SE 02:40:31 10° ENE
STARLINK-1305 4.0 02:33:03 10° WSW 02:37:10 63° NNW 02:41:18 10° ENE
STARLINK-68 3.5 02:34:23 12° SW 02:37:38 60° SE 02:41:15 10° ENE
STARLINK-1306 4.1 02:33:42 10° WSW 02:37:51 61° NNW 02:42:02 10° ENE
STARLINK-53 3.5 02:35:24 12° SW 02:38:40 60° SE 02:42:15 10° ENE
STARLINK-1012 4.2 02:35:47 11° SW 02:39:32 46° SE 02:43:30 10° ENE
Cosmos 1980 Rocket 4.3 02:36:15 10° W 02:39:51 17° NW 02:43:29 10° N
STARLINK-1369 3.8 02:36:26 10° WNW 02:40:28 73° NNE 02:44:29 10° ESE
STARLINK-50 3.7 02:37:26 11° SW 02:40:56 58° SE 02:44:42 10° ENE
SL-24 DEB 4.2 02:37:24 10° N 02:42:01 77° W 02:46:36 10° SSW
STARLINK-1262 4.1 02:38:05 10° WSW 02:42:11 60° NNW 02:46:19 10° ENE
STARLINK-1372 3.7 02:40:36 10° WNW 02:44:37 77° NNE 02:48:35 10° ESE
Cosmos 2333 Rocket 3.1 02:39:19 10° S 02:44:41 47° ESE 02:50:06 10° NE
STARLINK-71 3.7 02:41:45 10° SW 02:45:41 66° SE 02:49:41 10° ENE
Meteor 1-28 Rocket 3.3 02:42:31 10° S 02:46:13 58° W 02:49:55 10° NNW
STARLINK-1300 4.1 02:43:05 10° WSW 02:47:11 57° NNW 02:51:17 10° ENE
Landsat 5 3.9 02:43:01 10° SSE 02:47:31 76° ENE 02:51:57 10° N
Cosmos 2219 Rocket 3.1 02:43:29 10° S 02:48:48 47° ESE 02:54:08 10° NE
STARLINK-29 4.0 02:46:21 10° W 02:48:59 24° SW 02:51:37 10° SSE
STARLINK-1378 3.7 02:45:20 10° WNW 02:49:22 82° NNE 02:53:23 10° ESE
Cosmos 1727 Rocket 4.1 02:43:10 10° N 02:49:23 82° E 02:55:34 10° S
STARLINK-1026 4.0 02:45:24 10° SW 02:49:26 54° SE 02:53:29 10° ENE
ADEOS II 2.7 02:45:03 10° N 02:50:02 45° WNW 02:55:00 10° SW
Cosmos 2322 4.0 02:44:27 10° SSW 02:50:07 72° ESE 02:55:51 10° NNE
STARLINK-1295 4.2 02:48:05 10° W 02:52:10 54° NNW 02:56:15 10° ENE
IDEFIX/ARIANE 42P 2.9 02:48:25 10° NNE 02:53:42 72° ESE 02:58:56 10° S
SL-4 R/B 3.6 02:50:21 10° W 02:53:51 20° SW 02:57:14 10° S
STARLINK-1379 3.6 02:49:49 10° WNW 02:53:52 86° NNE 02:57:55 10° ESE
Cosmos 2263 Rocket 3.9 02:51:29 10° WNW 02:53:57 13° W 02:56:24 10° WSW
STARLINK-1013 3.9 02:50:21 10° SW 02:54:25 58° SE 02:58:30 10° ENE
Cosmos 1606 2.6 02:51:00 10° NNW 02:54:47 77° W 02:58:34 10° S
ERS-2 2.3 02:52:15 10° S 02:55:49 50° WSW 02:59:24 10° NNW
STARLINK-1287 4.3 02:53:06 10° W 02:57:09 52° NNW 03:01:14 10° ENE
STARLINK-25 3.2 02:53:55 10° SW 02:57:23 79° SSE 03:00:51 10° ENE
STARLINK-1329 3.6 02:53:39 10° WNW 02:57:43 90° SSW 03:01:45 10° ESE
ATLAS 5 CENTAUR R/B 3.7 02:56:09 10° SSE 02:59:08 19° ESE 03:02:18 10° ENE
ARIANE 5 R/B 2.7 02:54:23 10° N 02:59:17 57° WNW 03:04:11 10° SSW
STARLINK-1009 3.8 02:55:17 10° SW 02:59:22 63° SE 03:03:29 10° ENE
Cosmos 2333 4.3 02:53:57 10° SSW 02:59:32 80° ESE 03:05:12 10° NNE
BREEZE-M R/B 1.8 02:56:17 10° WNW 02:59:37 78° SSW 03:02:02 10° ESE
